Location: St. Andrews
(45.0670°N, 67.0330°W)
Time: 11:25:25
(UTC-04:00)

Amateur Radio Satellites - All Passes

Search period start: 18 December 2014 10:55
Search period end: 19 December 2014 10:55
Location: St. Andrews, 45.0670°N, 67.0330°W

Satellite Date Start Highest point End Downlink Frequencies (MHz)
Time Altitude Azimuth
ZACube-1 18 Dec 11:00:00 11:04:31 78° 285° (WNW) 11:09:05 437.345
QB50P2 18 Dec 11:03:14 11:07:15 42° 261° (W) 11:11:17 145.880/145.840
BUGSAT 1 18 Dec 11:03:54 11:07:54 51° 260° (W) 11:11:53 437.445
CUSAT 1 18 Dec 11:05:59 11:09:18 34° 291° (WNW) 11:13:37 437.405
POLYITAN 1 18 Dec 11:11:17 11:15:08 35° 263° (W) 11:19:02 437.675
AAUSAT CUBESAT 2 18 Dec 11:12:15 11:14:47 16° 298° (WNW) 11:17:20 437.432
NANOSAT C BR1 18 Dec 11:16:05 11:19:50 31° 263° (W) 11:23:38 145.865
UWE-3 18 Dec 11:21:38 11:25:54 41° 290° (WNW) 11:30:14 435.000/436.395/437.385
FUNcube-1 18 Dec 11:27:50 11:32:03 41° 289° (WNW) 11:36:20 145.935
TIGRISAT 18 Dec 11:28:12 11:31:12 18° 269° (W) 11:34:15 435.000
DOVE 4 18 Dec 11:29:28 11:32:06 15° 298° (WNW) 11:34:49 437.250
O/OREOS (USA 219) 18 Dec 11:30:17 11:34:46 68° 249° (WSW) 11:39:15 437.305
QB50P1 18 Dec 11:30:32 11:33:53 23° 266° (W) 11:37:15 145.935-145.965
AISAT 18 Dec 11:34:10 11:38:33 62° 287° (WNW) 11:42:56 437.250
SPROUT 18 Dec 11:34:28 11:36:22 13° 89° (E) 11:38:16 437.525
YUBILEINY 18 Dec 11:34:36 11:43:21 79° 80° (E) 11:52:03 435.215
TISAT 1 18 Dec 11:39:30 11:41:57 15° 91° (E) 11:44:25 437.305
DANDE 18 Dec 11:46:11 11:48:40 17° 300° (WNW) 11:51:36 436.750
DX 1 18 Dec 11:46:44 11:49:44 19° 297° (WNW) 11:52:43 434.975-435.025
CUBEBUG 1 18 Dec 11:49:58 11:54:19 76° 103° (ESE) 11:58:38 437.445
POPSAT HIP 1 18 Dec 12:01:02 12:02:32 12° 271° (W) 12:04:02 437.405
HO-68 18 Dec 12:14:39 12:17:34 13° 315° (NW) 12:20:28 435.675
Oscar 19 18 Dec 12:16:02 12:20:35 33° 66° (ENE) 12:25:10 437.125/150
CUBEBUG 2 18 Dec 12:16:06 12:18:07 13° 300° (WNW) 12:20:09 437.445
50 SAT 18 Dec 12:20:24 12:23:39 23° 294° (WNW) 12:26:55 437.505
ESTCUBE 1 18 Dec 12:21:53 12:26:15 50° 289° (WNW) 12:30:34 437.505/2401.250
HUMSAT D 18 Dec 12:22:11 12:25:18 20° 296° (WNW) 12:28:25 437.325/437.525
ITAMSAT 1 18 Dec 12:27:21 12:30:44 18° 59° (ENE) 12:34:08 435.822/435.867
VELOX 1 18 Dec 12:29:59 12:33:07 19° 297° (WNW) 12:36:16 145.980
ITUPSAT 1 18 Dec 12:48:59 12:51:19 13° 89° (E) 12:53:38 437.325
SWISSCUBE 18 Dec 12:49:17 12:52:01 15° 90° (E) 12:54:44 437.505
RS-15 18 Dec 12:53:54 13:04:47 78° 120° (ESE) 13:15:45 29.354- 29.394
SPROUT 18 Dec 13:08:38 13:12:54 65° 286° (WNW) 13:17:09 437.525
BEESAT 18 Dec 13:13:58 13:17:51 24° 94° (E) 13:21:42 436.000
TISAT 1 18 Dec 13:14:00 13:18:06 52° 288° (WNW) 13:22:13 437.305
AO-7 18 Dec 13:15:45 13:20:27 17° 42° (NE) 13:25:10 29.400- 29.500
CUBEBUG 1 18 Dec 13:28:13 13:30:06 13° 300° (WNW) 13:31:59 437.445
YUBILEINY 18 Dec 13:32:46 13:39:09 24° 281° (WNW) 13:45:31 435.215
AIST 2 18 Dec 13:41:59 13:42:47 10° 107° (ESE) 13:43:35 435.215
Gurwin Techsat 1B 18 Dec 13:44:38 13:49:44 49° 70° (ENE) 13:54:51 435.225
BEESAT 3 18 Dec 13:46:52 13:50:21 27° 115° (ESE) 13:53:53 437.485
PCSat 18 Dec 13:51:44 13:56:02 25° 108° (ESE) 14:00:21 145.827
HORYU 2 18 Dec 13:53:02 13:56:30 23° 64° (ENE) 13:59:59 437.375
Oscar 19 18 Dec 13:55:13 13:59:52 34° 264° (W) 14:04:34 437.125/150
AUBIESAT-1 18 Dec 13:57:45 14:01:14 22° 97° (E) 14:04:29 437.475
ITAMSAT 1 18 Dec 14:04:30 14:09:41 71° 257° (WSW) 14:14:52 435.822/435.867
M-CUBED/EXP-1 PRIME 18 Dec 14:20:57 14:25:15 43° 103° (ESE) 14:29:11 437.505
BEESAT 2 18 Dec 14:23:42 14:27:44 57° 121° (ESE) 14:31:51 435.950
ITUPSAT 1 18 Dec 14:24:58 14:29:45 73° 286° (WNW) 14:34:29 437.325
SWISSCUBE 18 Dec 14:25:36 14:30:20 65° 287° (WNW) 14:35:02 437.505
BEESAT 18 Dec 14:51:22 14:55:50 40° 291° (WNW) 15:00:16 436.000
KKS-1 18 Dec 14:58:32 15:02:57 58° 101° (E) 15:07:22 437.445
JAS-2 18 Dec 14:58:55 15:04:11 21° 57° (ENE) 15:09:09 435.910
STARS 18 Dec 15:00:28 15:04:40 41° 99° (E) 15:08:51 437.465
ISS 18 Dec 15:00:35 15:03:43 42° 143° (SE) 15:06:52 145.825
AO-7 18 Dec 15:03:28 15:11:35 60° 64° (ENE) 15:19:45 29.400- 29.500
RS-15 18 Dec 15:08:06 15:18:12 41° 328° (NNW) 15:28:31 29.354- 29.394
AIST 2 18 Dec 15:16:26 15:20:41 89° 302° (WNW) 15:25:01 435.215
BEESAT 3 18 Dec 15:24:36 15:28:25 36° 313° (NW) 15:32:18 437.485
Gurwin Techsat 1B 18 Dec 15:25:45 15:29:57 24° 267° (W) 15:34:11 435.225
HORYU 2 18 Dec 15:28:43 15:32:55 41° 262° (W) 15:37:11 437.375
AUBIESAT-1 18 Dec 15:32:11 15:36:22 39° 297° (WNW) 15:40:14 437.475
GONETS M04 18 Dec 15:33:23 15:39:52 22° 60° (ENE) 15:46:15
PCSat 18 Dec 15:33:47 15:39:05 54° 307° (NW) 15:44:26 145.827
M-CUBED/EXP-1 PRIME 18 Dec 15:56:26 15:59:58 23° 303° (WNW) 16:03:17 437.505
BEESAT 2 18 Dec 16:03:08 16:06:20 21° 320° (NW) 16:09:34 435.950
ITUPSAT 1 18 Dec 16:06:14 16:06:46 10° 305° (NW) 16:07:17 437.325
KKS-1 18 Dec 16:36:19 16:39:10 17° 298° (WNW) 16:42:00 437.445
ISS 18 Dec 16:37:13 16:40:21 39° 341° (NNW) 16:43:29 145.825
STARS 18 Dec 16:37:30 16:40:54 22° 296° (WNW) 16:44:19 437.465
JAS-2 18 Dec 16:40:44 16:48:28 89° 75° (ENE) 16:55:33 435.910
Cubesat XI-IV 18 Dec 16:41:52 16:46:00 24° 62° (ENE) 16:50:09 437.490
AIST 2 18 Dec 16:57:14 16:59:57 16° 325° (NW) 17:02:42 435.215
AO-7 18 Dec 16:57:26 17:04:46 34° 264° (W) 17:12:11 29.400- 29.500
AIST 1 18 Dec 17:01:35 17:05:55 65° 96° (E) 17:10:16
CUTE-I 18 Dec 17:14:47 17:19:46 42° 68° (ENE) 17:24:46 437.470
PCSat 18 Dec 17:20:59 17:23:45 14° 329° (NNW) 17:26:32 145.827
RS-15 18 Dec 17:25:36 17:34:33 27° 2° (N) 17:43:43 29.354- 29.394
MOZHAYETS 4 18 Dec 17:26:49 17:31:28 71° 102° (ESE) 17:36:04
GONETS M04 18 Dec 17:29:10 17:38:00 90° 263° (W) 17:46:43
PRISM 18 Dec 17:30:28 17:31:25 11° 89° (E) 17:32:22 437.425
STRAND 1 18 Dec 17:58:55 18:00:14 11° 87° (E) 18:01:32 437.568
ISS 18 Dec 18:14:43 18:17:30 25° 1° (N) 18:20:17 145.825
MaSat-1 18 Dec 18:17:01 18:18:51 19° 56° (NE) 18:20:45 437.345
Cubesat XI-IV 18 Dec 18:20:32 18:25:45 53° 260° (W) 18:30:58 437.490
JAS-2 18 Dec 18:29:00 18:34:09 19° 271° (W) 18:39:06 435.910
AIST 1 18 Dec 18:41:54 18:44:04 13° 294° (WNW) 18:46:13
CUBESAT XI-V 18 Dec 18:43:21 18:47:33 34° 96° (E) 18:51:43 437.345
CUTE-I 18 Dec 18:55:28 18:59:58 28° 265° (W) 19:04:30 437.470
DANDE 18 Dec 18:57:24 19:00:18 12° 57° (ENE) 19:03:22 436.750
CANX-2 18 Dec 19:01:34 19:02:49 11° 59° (ENE) 19:04:03 2200.000
PRISM 18 Dec 19:03:18 19:07:28 72° 286° (WNW) 19:11:35 437.425
MOZHAYETS 4 18 Dec 19:05:33 19:08:07 15° 300° (WNW) 19:10:41
HO-68 18 Dec 19:08:09 19:14:14 31° 58° (ENE) 19:20:19 435.675
GONETS M04 18 Dec 19:27:47 19:33:32 20° 284° (WNW) 19:39:16
COMPASS 1 18 Dec 19:28:49 19:31:05 14° 61° (ENE) 19:33:22 437.405
SEEDS 18 Dec 19:30:33 19:33:22 17° 63° (ENE) 19:36:11 437.485
CUTE 1.7 + AOD 2 18 Dec 19:30:34 19:33:40 20° 64° (ENE) 19:36:47 437.475
STRAND 1 18 Dec 19:35:02 19:40:10 86° 105° (ESE) 19:45:15 437.568
RS-15 18 Dec 19:40:16 19:50:46 44° 35° (NE) 20:01:39 29.354- 29.394
BRITE-PL 18 Dec 19:45:18 19:48:53 28° 68° (ENE) 19:52:27 437.365/2234.400
MaSat-1 18 Dec 19:51:00 19:52:08 12° 250° (WSW) 19:53:17 437.345
ISS 18 Dec 19:51:27 19:54:38 44° 21° (NNE) 19:57:47 145.825
CUSAT 1 18 Dec 19:57:34 20:04:12 35° 70° (ENE) 20:11:42 437.405
Oscar 11 18 Dec 19:59:50 20:02:13 15° 61° (ENE) 20:04:37 145.826/435.025
DELFI C3 18 Dec 20:00:12 20:01:32 11° 60° (ENE) 20:02:53 145.870
CINEMA 3 18 Dec 20:05:10 20:07:41 16° 62° (ENE) 20:10:13 145.822/145.860
CUBEBUG 2 18 Dec 20:06:10 20:06:18 10° 58° (ENE) 20:06:27 437.445
UKube-1 18 Dec 20:07:01 20:09:17 14° 60° (ENE) 20:11:34 .
CUBESAT XI-V 18 Dec 20:21:00 20:24:53 27° 294° (WNW) 20:28:44 437.345
GOMX 1 18 Dec 20:22:57 20:26:57 50° 72° (ENE) 20:31:00 467.674
ZACube-1 18 Dec 20:25:06 20:26:42 12° 59° (ENE) 20:28:19 437.345
AAUSAT CUBESAT 2 18 Dec 20:28:32 20:32:35 50° 72° (ENE) 20:36:42 437.432
CANX-2 18 Dec 20:33:48 20:38:04 86° 257° (WSW) 20:42:24 2200.000
DANDE 18 Dec 20:37:58 20:45:05 55° 75° (ENE) 20:53:25 436.750
UWE-3 18 Dec 20:45:38 20:48:52 22° 65° (ENE) 20:52:09 435.000/436.395/437.385
FUNcube-1 18 Dec 20:50:43 20:53:53 21° 65° (ENE) 20:57:05 145.935
HO-68 18 Dec 20:54:27 21:01:32 61° 258° (WSW) 21:08:39 435.675
PCSat 18 Dec 20:56:04 20:56:19 10° 23° (NNE) 20:56:34 145.827
DOVE 4 18 Dec 20:58:34 21:02:43 90° 244° (WSW) 21:06:56 437.250
AISAT 18 Dec 20:59:29 21:02:25 18° 62° (ENE) 21:05:22 437.250
COMPASS 1 18 Dec 21:02:08 21:06:18 63° 259° (W) 21:10:32 437.405
SO-50 18 Dec 21:04:36 21:07:47 19° 111° (ESE) 21:11:01 436.795
SEEDS 18 Dec 21:04:42 21:08:49 50° 261° (W) 21:12:59 437.485
BEESAT 2 18 Dec 21:05:05 21:07:10 13° 32° (NNE) 21:09:15 435.950
CUTE 1.7 + AOD 2 18 Dec 21:05:15 21:09:18 43° 262° (W) 21:13:25 437.475
DX 1 18 Dec 21:07:09 21:11:24 55° 72° (ENE) 21:15:40 434.975-435.025
STRAND 1 18 Dec 21:15:58 21:18:39 15° 303° (WNW) 21:21:19 437.568
BRITE-PL 18 Dec 21:23:56 21:27:26 25° 265° (W) 21:30:55 437.365/2234.400
ISS 18 Dec 21:28:10 21:31:10 34° 219° (SW) 21:34:09 145.825
DELFI C3 18 Dec 21:32:05 21:36:12 78° 257° (WSW) 21:40:21 145.870
Oscar 11 18 Dec 21:33:35 21:37:52 64° 259° (W) 21:42:13 145.826/435.025
50 SAT 18 Dec 21:35:25 21:38:54 29° 68° (ENE) 21:42:25 437.505
CUBEBUG 2 18 Dec 21:38:06 21:42:16 89° 76° (ENE) 21:46:34 437.445
HUMSAT D 18 Dec 21:40:02 21:43:54 40° 70° (ENE) 21:47:50 437.325/437.525
CUSAT 1 18 Dec 21:40:17 21:47:33 59° 265° (W) 21:55:49 437.405
CINEMA 3 18 Dec 21:40:25 21:44:28 53° 260° (W) 21:48:38 145.822/145.860
UKube-1 18 Dec 21:40:37 21:44:55 68° 257° (WSW) 21:49:16 .
ESTCUBE 1 18 Dec 21:47:51 21:51:21 22° 64° (ENE) 21:54:51 437.505/2401.250
VELOX 1 18 Dec 21:52:22 21:56:41 55° 72° (ENE) 22:01:01 145.980
RS-15 18 Dec 21:52:52 22:04:04 74° 241° (WSW) 22:15:45 29.354- 29.394
ZACube-1 18 Dec 21:58:17 22:02:27 76° 258° (WSW) 22:06:44 437.345
AIST 2 18 Dec 21:58:54 22:01:59 19° 37° (NE) 22:05:02 435.215
GOMX 1 18 Dec 22:03:09 22:05:27 15° 270° (W) 22:07:46 467.674
BEESAT 3 18 Dec 22:04:18 22:08:10 35° 46° (NE) 22:12:00 437.485
AAUSAT CUBESAT 2 18 Dec 22:05:57 22:08:33 16° 269° (W) 22:11:11 437.432
UNISAT 6 18 Dec 22:08:31 22:11:44 18° 91° (E) 22:14:56 437.425
UWE-3 18 Dec 22:21:21 22:25:12 36° 263° (W) 22:29:10 435.000/436.395/437.385
DANDE 18 Dec 22:21:46 22:28:25 37° 270° (W) 22:36:00 436.750
FUNcube-1 18 Dec 22:26:07 22:30:00 38° 263° (W) 22:33:59 145.935
SPROUT 18 Dec 22:31:12 22:33:25 14° 61° (ENE) 22:35:39 437.525
AISAT 18 Dec 22:34:20 22:38:40 53° 260° (W) 22:43:00 437.250
TISAT 1 18 Dec 22:34:33 22:37:09 16° 62° (ENE) 22:39:44 437.305
DUCHIFAT 1 18 Dec 22:35:30 22:38:36 19° 93° (E) 22:41:42 145.980
PCSat 18 Dec 22:36:33 22:41:29 34° 47° (NE) 22:46:23 145.827
ANTELSAT 18 Dec 22:39:24 22:43:44 35° 97° (E) 22:48:04 437.575/2403.000
BEESAT 2 18 Dec 22:42:01 22:46:13 69° 53° (NE) 22:50:22 435.950
SO-50 18 Dec 22:43:22 22:47:52 59° 310° (NW) 22:52:32 436.795
BUGSAT 1 18 Dec 22:45:12 22:48:07 19° 93° (E) 22:51:02 437.445
YUBILEINY 18 Dec 22:45:21 22:50:43 18° 75° (ENE) 22:56:03 435.215
DX 1 18 Dec 22:45:28 22:47:59 15° 269° (W) 22:50:32 434.975-435.025
QB50P2 18 Dec 22:47:06 22:50:43 26° 95° (E) 22:54:19 145.880/145.840
CUBEBUG 1 18 Dec 22:48:07 22:52:29 81° 75° (ENE) 22:56:52 437.445
POLYITAN 1 18 Dec 22:54:58 22:58:49 32° 97° (E) 23:02:39 437.675
NANOSAT C BR1 18 Dec 22:59:07 23:03:00 34° 97° (E) 23:06:54 145.865
50 SAT 18 Dec 23:10:48 23:14:07 25° 265° (W) 23:17:29 437.505
QB50P1 18 Dec 23:12:58 23:17:07 48° 100° (E) 23:21:14 145.935-145.965
TIGRISAT 18 Dec 23:16:06 23:20:48 80° 103° (ESE) 23:25:32 435.000
HUMSAT D 18 Dec 23:16:58 23:19:54 19° 268° (W) 23:22:52 437.325/437.525
ESTCUBE 1 18 Dec 23:23:39 23:27:58 42° 262° (W) 23:32:18 437.505/2401.250
CUSAT 1 18 Dec 23:26:51 23:29:30 12° 282° (WNW) 23:32:16 437.405
VELOX 1 18 Dec 23:30:58 23:33:37 16° 269° (W) 23:36:17 145.980
AIST 2 18 Dec 23:36:48 23:41:06 74° 237° (WSW) 23:45:20 435.215
M-CUBED/EXP-1 PRIME 18 Dec 23:39:32 23:41:54 14° 52° (NE) 23:44:17 437.505
POPSAT HIP 1 18 Dec 23:41:19 23:45:36 83° 285° (WNW) 23:49:52 437.405
BEESAT 3 18 Dec 23:42:40 23:46:15 28° 245° (WSW) 23:49:48 437.485
UNISAT 6 18 Dec 23:44:14 23:48:49 54° 288° (WNW) 23:53:25 437.425
ITUPSAT 1 18 Dec 23:57:29 00:01:04 21° 63° (ENE) 00:04:40 437.325
SWISSCUBE 18 Dec 23:57:42 00:01:26 23° 63° (ENE) 00:05:12 437.505
SPROUT 19 Dec 00:04:45 00:09:00 66° 259° (WSW) 00:13:16 437.525
RS-15 19 Dec 00:07:37 00:14:28 18° 262° (W) 00:21:30 29.354- 29.394
TISAT 1 19 Dec 00:08:27 00:12:34 53° 260° (W) 00:16:42 437.305
O/OREOS (USA 219) 19 Dec 00:09:43 00:10:05 10° 96° (E) 00:10:27 437.305
DUCHIFAT 1 19 Dec 00:10:39 00:14:38 41° 290° (WNW) 00:18:38 145.980
ANTELSAT 19 Dec 00:16:25 00:20:24 28° 294° (WNW) 00:24:23 437.575/2403.000
PCSat 19 Dec 00:19:54 00:25:00 43° 247° (WSW) 00:30:05 145.827
BUGSAT 1 19 Dec 00:20:00 00:23:46 38° 290° (WNW) 00:27:31 437.445
BEESAT 2 19 Dec 00:21:49 00:23:56 14° 251° (WSW) 00:26:02 435.950
BEESAT 19 Dec 00:22:24 00:26:45 35° 67° (ENE) 00:31:06 436.000
QB50P2 19 Dec 00:22:53 00:26:38 31° 292° (WNW) 00:30:22 145.880/145.840
SO-50 19 Dec 00:26:55 00:29:26 14° 331° (NNW) 00:31:59 436.795
CUBEBUG 1 19 Dec 00:28:48 00:29:25 10° 272° (W) 00:30:03 437.445
POLYITAN 1 19 Dec 00:31:06 00:34:39 26° 293° (WNW) 00:38:12 437.675
NANOSAT C BR1 19 Dec 00:35:20 00:38:44 24° 294° (WNW) 00:42:08 145.865
YUBILEINY 19 Dec 00:37:23 00:46:08 84° 96° (E) 00:54:54 435.215
AUBIESAT-1 19 Dec 00:47:29 00:52:04 45° 65° (ENE) 00:56:45 437.475
QB50P1 19 Dec 00:49:48 00:52:39 18° 297° (WNW) 00:55:31 145.935-145.965
TIGRISAT 19 Dec 00:54:35 00:56:56 14° 300° (WNW) 00:59:18 435.000
M-CUBED/EXP-1 PRIME 19 Dec 01:11:17 01:16:07 81° 70° (ENE) 01:21:04 437.505
ITUPSAT 1 19 Dec 01:33:57 01:38:37 50° 260° (W) 01:43:19 437.325
SWISSCUBE 19 Dec 01:34:26 01:39:02 45° 261° (W) 01:43:39 437.505
O/OREOS (USA 219) 19 Dec 01:44:17 01:48:45 84° 294° (WNW) 01:53:14 437.305
KKS-1 19 Dec 01:58:43 02:03:06 67° 73° (ENE) 02:07:31 437.445
STARS 19 Dec 01:59:36 02:03:47 46° 71° (ENE) 02:08:00 437.465
Gurwin Techsat 1B 19 Dec 01:59:55 02:03:16 17° 90° (E) 02:06:35 435.225
BEESAT 19 Dec 02:00:31 02:04:38 28° 265° (W) 02:08:46 436.000
Oscar 19 19 Dec 02:04:02 02:09:15 73° 103° (ESE) 02:14:26 437.125/150
ITAMSAT 1 19 Dec 02:15:34 02:20:18 35° 97° (E) 02:25:00 435.822/435.867
AUBIESAT-1 19 Dec 02:23:14 02:27:09 25° 262° (W) 02:31:10 437.475
YUBILEINY 19 Dec 02:37:27 02:44:06 24° 299° (WNW) 02:50:46 435.215
M-CUBED/EXP-1 PRIME 19 Dec 02:49:15 02:51:40 14° 267° (W) 02:54:08 437.505
MOZHAYETS 4 19 Dec 02:57:28 02:58:47 11° 57° (ENE) 03:00:06
AO-7 19 Dec 03:04:51 03:09:24 15° 87° (E) 03:13:55 29.400- 29.500
AIST 1 19 Dec 03:07:38 03:10:49 20° 70° (ENE) 03:13:57
HORYU 2 19 Dec 03:18:14 03:22:20 33° 97° (E) 03:26:24 437.375
O/OREOS (USA 219) 19 Dec 03:27:03 03:28:54 12° 314° (NW) 03:30:45 437.305
STARS 19 Dec 03:37:29 03:40:31 18° 268° (W) 03:43:34 437.465
KKS-1 19 Dec 03:38:11 03:40:13 13° 271° (W) 03:42:15 437.445
Gurwin Techsat 1B 19 Dec 03:38:27 03:43:45 69° 287° (WNW) 03:49:01 435.225
Oscar 19 19 Dec 03:44:39 03:48:01 18° 301° (WNW) 03:51:22 437.125/150
SO-50 19 Dec 03:54:02 03:55:12 11° 22° (NNE) 03:56:23 436.795
VERMONT LUNAR 19 Dec 03:54:30 03:56:29 14° 153° (SSE) 03:58:29 437.305
ITAMSAT 1 19 Dec 03:55:10 03:59:43 32° 295° (WNW) 04:04:16 435.822/435.867
PHONESAT 2.4 19 Dec 04:00:01 04:01:16 12° 150° (SSE) 04:02:32 2401.200-2431.200
PRISM 19 Dec 04:23:11 04:24:59 13° 60° (ENE) 04:26:48 437.425
MOZHAYETS 4 19 Dec 04:30:35 04:35:14 83° 76° (ENE) 04:39:55
GONETS M04 19 Dec 04:38:49 04:45:03 22° 78° (ENE) 04:51:17
AIST 1 19 Dec 04:44:40 04:48:39 38° 268° (W) 04:52:35
HORYU 2 19 Dec 04:55:03 04:58:54 28° 294° (WNW) 05:02:44 437.375
AO-7 19 Dec 04:55:09 05:03:34 75° 106° (ESE) 05:11:55 29.400- 29.500
STRAND 1 19 Dec 05:15:29 05:19:20 22° 62° (ENE) 05:23:10 437.568
Gurwin Techsat 1B 19 Dec 05:21:12 05:22:45 11° 306° (NW) 05:24:18 435.225
VERMONT LUNAR 19 Dec 05:31:01 05:34:14 33° 169° (S) 05:37:28 437.305
CUTE-I 19 Dec 05:31:24 05:34:03 14° 88° (E) 05:36:42 437.470
SO-50 19 Dec 05:32:42 05:37:11 35° 44° (NE) 05:41:42 436.795
JAS-2 19 Dec 05:34:24 05:40:11 66° 101° (E) 05:45:26 435.910
PHONESAT 2.4 19 Dec 05:36:05 05:39:18 30° 166° (SSE) 05:42:31 2401.200-2431.200
CUBESAT XI-V 19 Dec 05:48:41 05:53:05 42° 70° (ENE) 05:57:29 437.345
PRISM 19 Dec 05:55:43 05:59:57 75° 257° (WSW) 06:04:12 437.425
MOZHAYETS 4 19 Dec 06:11:41 06:13:04 11° 273° (W) 06:14:27
GONETS M04 19 Dec 06:31:53 06:40:44 85° 278° (W) 06:49:39
Cubesat XI-IV 19 Dec 06:35:41 06:40:53 52° 100° (E) 06:46:03 437.490
AO-7 19 Dec 06:48:45 06:55:39 30° 307° (NW) 07:02:33 29.400- 29.500
STRAND 1 19 Dec 06:53:09 06:58:09 54° 259° (W) 07:03:10 437.568
VERMONT LUNAR 19 Dec 07:08:55 07:12:13 37° 186° (S) 07:15:31 437.305
CUTE-I 19 Dec 07:09:26 07:14:46 82° 286° (WNW) 07:20:05 437.470
SO-50 19 Dec 07:13:15 07:17:47 38° 243° (WSW) 07:22:19 436.795
PHONESAT 2.4 19 Dec 07:14:12 07:17:37 40° 183° (S) 07:21:03 2401.200-2431.200
JAS-2 19 Dec 07:20:34 07:24:39 20° 303° (WNW) 07:28:29 435.910
CUBESAT XI-V 19 Dec 07:27:03 07:30:42 22° 267° (W) 07:34:21 437.345
Cubesat XI-IV 19 Dec 08:16:28 08:20:38 24° 298° (WNW) 08:24:47 437.490
CANX-2 19 Dec 08:18:50 08:21:20 15° 90° (E) 08:23:49 2200.000
HO-68 19 Dec 08:20:38 08:26:14 24° 92° (E) 08:31:48 435.675
GOMX 1 19 Dec 08:23:14 08:25:47 14° 90° (E) 08:28:23 467.674
GONETS M04 19 Dec 08:32:50 08:39:02 21° 302° (WNW) 08:45:15
TIGRISAT 19 Dec 08:44:15 08:45:22 11° 57° (ENE) 08:46:30 435.000
COMPASS 1 19 Dec 08:45:03 08:48:05 19° 92° (E) 08:51:06 437.405
VERMONT LUNAR 19 Dec 08:47:30 08:50:03 19° 203° (SSW) 08:52:36 437.305
SEEDS 19 Dec 08:47:56 08:51:25 24° 94° (E) 08:54:53 437.485
CUTE 1.7 + AOD 2 19 Dec 08:48:55 08:52:40 28° 95° (E) 08:56:23 437.475
CUTE-I 19 Dec 08:51:33 08:54:01 13° 305° (NW) 08:56:28 437.470
PHONESAT 2.4 19 Dec 08:52:56 08:55:53 23° 200° (SSW) 08:58:50 2401.200-2431.200
DOVE 4 19 Dec 08:55:35 08:59:17 22° 93° (E) 09:03:08 437.250
POPSAT HIP 1 19 Dec 09:04:07 09:05:12 11° 59° (ENE) 09:06:18 437.405
UNISAT 6 19 Dec 09:10:08 09:13:18 20° 63° (ENE) 09:16:32 437.425
MaSat-1 19 Dec 09:10:49 09:12:42 22° 112° (ESE) 09:14:33 437.345
DELFI C3 19 Dec 09:12:30 09:14:32 13° 90° (E) 09:16:34 145.870
CUSAT 1 19 Dec 09:13:58 09:16:24 17° 81° (E) 09:19:17 437.405
Oscar 11 19 Dec 09:19:49 09:23:05 20° 92° (E) 09:26:19 145.826/435.025
BRITE-PL 19 Dec 09:24:35 09:29:12 74° 102° (ESE) 09:34:11 437.365/2234.400
UKube-1 19 Dec 09:27:33 09:30:27 17° 92° (E) 09:33:20 .
CUBEBUG 2 19 Dec 09:28:06 09:31:13 18° 91° (E) 09:34:22 437.445
DUCHIFAT 1 19 Dec 09:30:43 09:33:46 20° 64° (ENE) 09:36:51 145.980
CINEMA 3 19 Dec 09:32:59 09:37:10 31° 96° (E) 09:41:29 145.822/145.860
BUGSAT 1 19 Dec 09:37:58 09:40:51 19° 64° (ENE) 09:43:44 437.445
ANTELSAT 19 Dec 09:40:47 09:44:50 38° 69° (ENE) 09:49:00 437.575/2403.000
QB50P2 19 Dec 09:42:30 09:46:02 27° 67° (ENE) 09:49:35 145.880/145.840
AAUSAT CUBESAT 2 19 Dec 09:45:36 09:49:53 74° 102° (ESE) 09:54:06 437.432
ZACube-1 19 Dec 09:45:49 09:49:04 19° 92° (E) 09:52:19 437.345
POLYITAN 1 19 Dec 09:50:30 09:54:14 32° 68° (ENE) 09:57:59 437.675
CANX-2 19 Dec 09:53:22 09:57:37 55° 287° (WNW) 10:01:50 2200.000
NANOSAT C BR1 19 Dec 09:54:08 09:57:55 34° 69° (ENE) 10:01:44 145.865
DANDE 19 Dec 09:56:35 09:59:47 37° 91° (E) 10:03:57 436.750
GOMX 1 19 Dec 09:59:39 10:04:17 70° 285° (WNW) 10:09:15 467.674
HO-68 19 Dec 10:07:25 10:14:32 70° 291° (WNW) 10:21:37 435.675
QB50P1 19 Dec 10:07:57 10:11:59 47° 71° (ENE) 10:16:03 145.935-145.965
UWE-3 19 Dec 10:08:54 10:13:10 38° 97° (E) 10:17:29 435.000/436.395/437.385
FUNcube-1 19 Dec 10:12:25 10:16:33 34° 97° (E) 10:20:43 145.935
O/OREOS (USA 219) 19 Dec 10:13:17 10:17:18 30° 57° (ENE) 10:21:18 437.305
RS-15 19 Dec 10:15:03 10:19:05 13° 94° (E) 10:23:07 29.354- 29.394
TIGRISAT 19 Dec 10:17:01 10:21:22 88° 76° (ENE) 10:25:51 435.000
COMPASS 1 19 Dec 10:19:58 10:24:01 42° 289° (WNW) 10:28:01 437.405
SEEDS 19 Dec 10:23:25 10:27:18 34° 291° (WNW) 10:31:10 437.485
AISAT 19 Dec 10:23:55 10:27:35 25° 95° (E) 10:31:14 437.250
CUTE 1.7 + AOD 2 19 Dec 10:24:48 10:28:34 29° 292° (WNW) 10:32:18 437.475
DX 1 19 Dec 10:29:41 10:34:03 80° 104° (ESE) 10:38:24 434.975-435.025
DOVE 4 19 Dec 10:32:45 10:37:12 45° 289° (WNW) 10:41:55 437.250
POPSAT HIP 1 19 Dec 10:36:15 10:40:27 85° 256° (WSW) 10:44:42 437.405
CUBEBUG 1 19 Dec 10:37:07 10:39:05 13° 89° (E) 10:41:03 437.445
UNISAT 6 19 Dec 10:45:35 10:49:46 46° 261° (W) 10:54:05 437.425
MaSat-1 19 Dec 10:45:51 10:46:08 10° 308° (NW) 10:46:26 437.345
DELFI C3 19 Dec 10:46:07 10:50:11 57° 287° (WNW) 10:54:13 145.870
